OneWeb SL0653

operational
NORAD ID: 55815 Int'l Des: 2023-029 Owner: ONEWEBN Country: UK Constellation: oneweb
LEOCIRCULARPOLARONEWEB_TYPE

Über OneWeb SL0653

Beschreibung wird geladen...

Live-Position

3D-Globus wird geladen...

Nächste Überflüge

Höhenverlauf

Altitude vs Time

uPlot chart will show altitude changes over time

Zweizeiliger Elementsatz

1 55815U 23029V 25304.64803598 -.00000158 00000-0 -46021-3 0 9999
2 55815 87.9009 335.2448 0001634 97.6221 262.5095 13.14501617129379
Epoch: 31. Okt. 2025 • Age: 29 hours

Aktueller Status

Höhe 1230.9 km
Geschwindigkeit 7.24 km/s
Subsatellitenpunkt -62.65°S, 174.9°E
Startdatum 9. März 2023
Alter 2.6 years
Typ internet

Technische Details

Klassifizierung Payload
Masse 148.00 kg
Trockenmasse 140.00 kg
Gesamtmasse 148.00 kg
Länge 1.30 m
Durchmesser 1.00 m
Spannweite 5.00 m
Form Trapezoid+2 pan
Hersteller ONEWUS
Bus-Typ ARROW
Phasenstatus In Orbit
Besitzer/Staat ONEWEBN/UK

Große Konstellationen

Loading constellations...